CZ-2C R/B - Orbit

View from above orbital plane
View from above orbital plane
View from above satellite
View from above satellite

Ground track
Ground track

The orbit data is extracted from the following two-line orbital elements,

1 36089U 09061B   13140.24776492  .00000230  00000-0  70147-4 0   496
2 36089 098.1535 182.3486 0081709 305.5977 094.9493 14.48900056186046
Epoch (UTC): 20 May 2013 05:56:46
Eccentricity: 0.0081709
inclination: 98.1535°
perigee height: 671 km
apogee height: 787 km
right ascension of ascending node: 182.3486°
argument of perigee: 305.5977°
revolutions per day: 14.48900056
mean anomaly at epoch: 94.9493°
orbit number at epoch: 18604

The dashed part of the orbit path shows where the satellite is in the earth's shadow,  

Developed and maintained by Chris Peat, Heavens-Above GmbH. Please read the updated FAQ before sending e-mail. Imprint. DLR